STARLINK-32682, 62196

Orbit data source: Space-Track

STARLINK-32682, 62196 is a payload satellite owned by SpaceX/Seattle (US) in LEO that was launched on Wed, 04 Dec 2024 UTC via an FALCON 9 launch vehicle from the Air Force Eastern Test Range (AFETR). Payload-class satellites include a variety of spacecraft equipped with specific instruments for various scientific and technological missions. These include communications satellites like Starlink; space stations such as the ISS; scientific satellites like the Hubble; Earth observation satellites from companies like Planet Labs, Umbra, and HawkEye 360; GPS; miniature CubeSats for education and research; and military/defense satellites.

Loading next visibility...
Identifier
62196, 2024-229E
Orbit
LEO
Last TLE update
3 hours ago
Origin
Manufacturer
SpaceX/Seattle
Mission
Operational Commercial Communications
Bus & Motor
STARLINK V2M, Unknown motor
Mass
730 kg wet, ~700 kg dry
Launch date (UTC)
2024-12-04 (7 months ago)
Launch vehicle
FALCON 9
Launch site
Air Force Eastern Test Range (AFETR)
Object type
Payload
Rocket body
Debris
Shape & HBR
Box + 2 Pan, 29 m
Radar Cross Section
33.884 m², Large (>1 m²)

Expand to show TLE details & history

TLE from 3 hours ago
0 STARLINK-32682
1 62196U 24229E   25190.18595951  .00005144  00000-0  19635-3 0  9994
2 62196  42.9980 173.2183 0001121 269.4601  90.6122 15.27575978 34717
Epoch: 2025-07-09T04:27Z
TLE epoch observation values (Epoch: 2025-07-09T04:27:46.901Z)
Latitude
-0.00004°
Longitude
178.90263°
Altitude
482.845 km
Speed
7.626 km/s
True Right ascension
11h 32m 52s
True Declination
0° 00' 00"
Sunlit
Object was in daylight at epoch
Visualization orbit readout
Latitude
31.79823°
Longitude
-140.49453°
Altitude
484.521 km
Speed
7.628 km/s
Apparent Right ascension
11h 28m 31s
Apparent Declination
-3° 41' 33"
Sunlit
Object is in daylight
Visualization observer readout
Local Sidereal Time
19:58:48
Azimuth
293.325° NW
Elevation
-30.532°
Doppler factor
1
Orbital elements
Apogee altitude
485.776 km
Perigee altitude
484.237 km
Semi-major axis
6,863.144 km
Eccentricity
0.00011
Inclination
42.998°
RAAN
173.2183°
Arg. of periapsis
269.4601°
True anomaly
Unknown
Mean anomaly
90.6122°
Eccentric anomaly
Unknown
Mean motion
3.81732 °/min
Orbital period
94.31 mins
BSTAR
0.00019635
Loading maneuver chart data...
Loading SW <> Apogee altitude chart data...
Loading historical data...
Loading historical data...
Loading historical data...
Loading historical data...
Loading historical data...
Loading historical data...
Loading historical data...

STARLINK-32682 Visibility forecast

Observer location: undefined°, undefined°

Span
Click to sort rows by Start time (UTC) header in descending order
Start Az.
Max El. time (UTC)
Max El. Az.
Max El.
End time (UTC)
End Az.
6 mins2025-07-09 08:04:14.632Z278.508° WNW2025-07-09 08:07:14.632Z228.154° WSW31.84°2025-07-09 08:10:14.632Z144.742° SSE
6 mins2025-07-10 02:40:14.632Z234° WSW2025-07-10 02:43:14.632Z119.43° SE40.185°2025-07-10 02:46:14.632Z75.926° E
6 mins2025-07-10 04:19:14.632Z279.403° WNW2025-07-10 04:22:14.632Z20.612° NNE38.083°2025-07-10 04:25:14.632Z71.648° E
5 mins2025-07-10 05:59:14.632Z297.524° NW2025-07-10 06:01:14.632Z29.845° NE41.701°2025-07-10 06:04:14.632Z92.828° ESE
5 mins2025-07-10 07:38:14.632Z263.006° W2025-07-10 07:40:14.632Z194.698° SSW32.925°2025-07-10 07:43:14.632Z138.641° SSE
|